Location: Terschelling
(53.4100°N, 5.3500°E)
Time: 11:01:15
(UTC+01:00)

LilacSat-2 - Visible Passes

Search period start: 08 December 2023 00:00
Search period end: 18 December 2023 00:00
Orbit: 490 x 506 km, 97.5° (Epoch: 07 December)

Date Brightness Start Highest point End Pass type
(mag) Time Alt. Az. Time Alt. Az. Time Alt. Az.
08 Dec ? 05:42:07 10° ENE 05:43:33 12° E 05:44:59 10° ESE visible
08 Dec ? 07:14:03 10° NNE 07:17:48 81° WNW 07:21:31 10° SSW visible
08 Dec ? 17:57:37 10° S 18:01:18 71° WSW 18:05:01 10° NNW visible
09 Dec ? 06:53:56 10° NNE 06:57:40 62° ESE 07:01:21 10° S visible
09 Dec ? 17:37:30 10° SSE 17:41:10 70° ENE 17:44:53 10° N visible
09 Dec ? 19:13:31 10° WSW 19:15:21 13° W 19:17:11 10° WNW visible
10 Dec ? 06:33:56 10° NNE 06:37:27 38° E 06:40:56 10° SSE visible
10 Dec ? 17:17:34 10° SE 17:21:05 43° ENE 17:24:38 10° N visible
10 Dec ? 18:52:11 10° SW 18:55:00 20° W 18:57:50 10° NW visible
11 Dec ? 06:14:06 10° NE 06:17:11 24° E 06:20:15 10° SSE visible
11 Dec ? 07:47:32 10° N 07:50:59 37° WNW 07:54:26 10° SW visible
11 Dec ? 16:57:51 10° SE 17:01:02 28° ENE 17:04:15 10° N visible
11 Dec ? 18:31:22 10° SSW 18:34:41 32° W 18:38:04 10° NNW visible
12 Dec ? 05:54:31 10° NE 05:56:50 16° E 05:59:09 10° SE visible
12 Dec ? 07:27:13 10° N 07:30:54 59° WNW 07:34:34 10° SSW visible
12 Dec ? 18:10:51 10° S 18:14:26 51° W 18:18:05 10° NNW visible
13 Dec ? 07:07:00 10° NNE 07:10:46 85° ESE 07:14:29 10° SSW visible
13 Dec ? 17:50:33 10° SSE 17:54:14 85° WSW 17:57:58 10° NNW visible
14 Dec ? 06:46:54 10° NNE 06:50:33 51° E 06:54:11 10° S visible
14 Dec ? 17:30:27 10° SSE 17:34:04 58° ENE 17:37:45 10° N visible
14 Dec ? 19:05:51 10° SW 19:08:08 16° W 19:10:27 10° NW visible
15 Dec ? 06:26:53 10° NNE 06:30:16 32° E 06:33:38 10° SSE visible
15 Dec ? 08:00:42 10° N 08:03:56 28° WNW 08:07:08 10° SW visible
15 Dec ? 17:10:32 10° SE 17:13:57 36° ENE 17:17:24 10° N visible
15 Dec ? 18:44:43 10° SSW 18:47:46 24° W 18:50:51 10° NW visible
16 Dec ? 06:07:04 10° NE 06:09:55 20° E 06:12:45 10° SE visible
16 Dec ? 07:40:16 10° N 07:43:50 43° WNW 07:47:22 10° SW visible
16 Dec ? 18:23:58 10° SSW 18:27:26 38° W 18:30:56 10° NNW visible
17 Dec ? 05:47:39 10° ENE 05:49:31 13° E 05:51:22 10° ESE visible
17 Dec ? 07:19:57 10° N 07:23:41 71° WNW 07:27:22 10° SSW visible
17 Dec ? 18:03:29 10° S 18:07:08 62° WSW 18:10:51 10° NNW visible
